Location: Unspecified
(43.4680°N, 87.1740°E)
Time: 04:25:44
(UTC+00:00)

NOSS 3-1 (A) - Pass Details

Date: 17 April 2021
Orbit: 733 x 1479 km, 63.4° (Epoch: 01 May)

Event Time Altitude Azimuth Distance (km) Brightness Sun altitude
Rises 17:14:46 0° 324° (NW) 3,912 7.6 -34.3°
Reaches altitude 10° 17:17:20 10° 329° (NNW) 3,054 6.8 -34.4°
Maximum altitude 17:24:44 59° 48° (NE) 1,474 4.4 -34.8°
Enters shadow 17:25:24 58° 68° (ENE) 1,508 4.3 -34.8°
